Location: Knowlton
(51.2333°N, 1.2667°E)
Time: 10:59:30
(UTC+00:00)

NOSS 3-4 (A) - Pass Details

Date: 18 April 2021
Orbit: 872 x 1340 km, 63.4° (Epoch: 06 May)

Event Time Altitude Azimuth Distance (km) Brightness Sun altitude
Rises 19:47:00 0° 224° (SW) 3,463 6.6 -8.0°
Reaches altitude 10° 19:49:24 10° 225° (SW) 2,546 5.9 -8.4°
Maximum altitude 19:55:18 85° 315° (NW) 939 3.5 -9.2°
Drops below altitude 10° 20:01:44 10° 45° (NE) 2,776 5.8 -10.0°
Sets 20:04:28 0° 46° (NE) 3,797 6.5 -10.4°
